Weather History for Lincoln, IL

Change the Weather History Date:

Tuesday, August 27, 2013

  Actual Average (KSPI) Record (KSPI)
Temperature  
Mean Temperature 82 °F 73 °F  
Max Temperature 92 °F 84 °F 97 °F (1983)
Min Temperature 73 °F 62 °F 51 °F (1967)
Degree Days  
Heating Degree Days 0 0  
Month to date heating degree days 0  
Since 1 June heating degree days 16  
Since 1 July heating degree days 1  
Cooling Degree Days 18 8  
Month to date cooling degree days 259  
Year to date cooling degree days 938  
Since 1 June cooling degree days 834  
Growing Degree Days 32 (Base 50)    
Moisture  
Dew Point 69 °F    
Average Humidity 67    
Maximum Humidity 91    
Minimum Humidity 41    
Precipitation  
Precipitation 0.00 in 0.11 in 0.67 in (1907)
Month to date precipitation 2.83  
Year to date precipitation 25.24  
Snow  
Snow 0.00 in 0.00 in 0.00 in ()
Month to date snowfall 0.0  
Since 1 June snowfall 0.0  
Since 1 July snowfall 0.0  
Snow Depth -    
Sea Level Pressure  
Sea Level Pressure 29.98 in    
Wind  
Wind Speed 2 mph (SW)    
Max Wind Speed 9 mph    
Max Gust Speed -    
Visibility 10 miles    
Events      
T = Trace of Precipitation, MM = Missing Value Source: NWS Daily Summary

Daily Weather History Graph

Daily Weather History Graph

Search for Another Location

Airport:

Trip Planner

Search our weather history database for the weather conditions in past years. The results will help you decide how hot, cold, wet, or windy it might be!

Date:

Astronomy

Aug. 27, 2013 Rise Set
Actual Time 6:20 AM CDT 7:36 PM CDT
Civil Twilight 5:52 AM CDT 8:04 PM CDT
Nautical Twilight 5:18 AM CDT 8:38 PM CDT
Astronomical Twilight 4:43 AM CDT 9:13 PM CDT
Moon 11:29 PM CDT (8/27) 1:18 PM CDT (8/27)
Length of Visible Light 14h 12m
Length of Day
13h 15m
Waning Gibbous, 57% of the Moon is Illuminated
Aug 27
Waning Gibbous
Aug 28
Last Quarter
Sep 5
New
Sep 12
First Quarter
Sep 19
Full

Hourly Weather History & Observations

Time (CDT) Temp. Heat Index Dew Point Humidity Pressure Visibility Wind Dir Wind Speed Gust Speed Precip Events Conditions
12:15 AM 76.3 °F - 70.7 °F 83% 30.03 in 10.0 mi Calm Calm - N/A   Clear
12:35 AM 76.3 °F - 70.7 °F 83% 30.03 in 10.0 mi SSW 3.5 mph - N/A   Clear
12:55 AM 75.7 °F - 70.7 °F 84% 30.03 in 10.0 mi Calm Calm - N/A   Clear
1:15 AM 76.1 °F - 70.7 °F 83% 30.02 in 10.0 mi Calm Calm - N/A   Clear
1:35 AM 75.6 °F - 70.7 °F 85% 30.02 in 10.0 mi Calm Calm - N/A   Clear
1:55 AM 74.7 °F - 70.7 °F 87% 30.02 in 10.0 mi Calm Calm - N/A   Clear
2:15 AM 74.1 °F - 70.7 °F 89% 30.02 in 7.0 mi Calm Calm - N/A   Clear
2:35 AM 73.6 °F - 70.3 °F 90% 30.02 in 7.0 mi Calm Calm - N/A   Clear
2:55 AM 73.4 °F - 70.5 °F 91% 30.02 in 7.0 mi Calm Calm - N/A   Clear
3:15 AM 73.0 °F - 70.2 °F 91% 30.02 in 7.0 mi Calm Calm - N/A   Clear
3:35 AM 73.0 °F - 70.2 °F 91% 30.02 in 7.0 mi Calm Calm - N/A   Clear
3:55 AM 73.4 °F - 70.2 °F 90% 30.02 in 7.0 mi Calm Calm - N/A   Clear
4:15 AM 73.6 °F - 70.0 °F 88% 30.01 in 10.0 mi Calm Calm - N/A   Clear
4:35 AM 73.8 °F - 70.0 °F 88% 30.01 in 10.0 mi Calm Calm - N/A   Clear
4:55 AM 74.3 °F - 70.0 °F 86% 30.02 in 10.0 mi Calm Calm - N/A   Clear
5:15 AM 73.8 °F - 70.0 °F 88% 30.01 in 10.0 mi Calm Calm - N/A   Clear
5:35 AM 73.0 °F - 69.8 °F 90% 30.02 in 10.0 mi Calm Calm - N/A   Clear
5:55 AM 73.0 °F - 69.8 °F 90% 30.02 in 10.0 mi Calm Calm - N/A   Clear
6:15 AM 73.0 °F - 69.8 °F 90% 30.02 in 10.0 mi SSW 3.5 mph - N/A   Clear
6:35 AM 73.2 °F - 69.8 °F 89% 30.03 in 10.0 mi Calm Calm - N/A   Clear
6:55 AM 73.8 °F - 70.2 °F 88% 30.03 in 10.0 mi Calm Calm - N/A   Clear
7:15 AM 74.5 °F - 70.2 °F 86% 30.03 in 10.0 mi Calm Calm - N/A   Clear
7:35 AM 74.3 °F - 70.2 °F 87% 30.04 in 10.0 mi SW 3.5 mph - N/A   Clear
7:55 AM 75.4 °F - 70.5 °F 85% 30.04 in 10.0 mi Calm Calm - N/A   Clear
8:15 AM 76.3 °F - 70.9 °F 83% 30.04 in 10.0 mi Calm Calm - N/A   Clear
8:35 AM 78.8 °F - 70.9 °F 77% 30.04 in 10.0 mi Calm Calm - N/A   Clear
8:55 AM 81.0 °F 84.9 °F 71.2 °F 72% 30.04 in 10.0 mi WSW 5.8 mph - N/A   Clear
9:15 AM 81.7 °F 85.8 °F 71.2 °F 70% 30.03 in 10.0 mi SW 4.6 mph - N/A   Clear
9:35 AM 82.9 °F 87.7 °F 71.6 °F 68% 30.03 in 10.0 mi WSW 3.5 mph - N/A   Clear
9:55 AM 83.3 °F 88.4 °F 71.6 °F 68% 30.03 in 10.0 mi SW 4.6 mph - N/A   Clear
10:15 AM 85.3 °F 91.1 °F 72.0 °F 64% 30.03 in 10.0 mi SW 4.6 mph - N/A   Clear
10:35 AM 86.5 °F 92.1 °F 71.2 °F 60% 30.02 in 10.0 mi WSW 4.6 mph - N/A   Clear
10:55 AM 88.0 °F 94.2 °F 71.6 °F 58% 30.02 in 10.0 mi WSW 3.5 mph - N/A   Clear
11:15 AM 88.7 °F 95.2 °F 71.6 °F 57% 30.01 in 10.0 mi West 5.8 mph - N/A   Clear
11:35 AM 89.1 °F 96.5 °F 72.5 °F 58% 30.01 in 10.0 mi WSW 5.8 mph - N/A   Clear
11:55 AM 88.9 °F 95.6 °F 71.8 °F 57% 30.00 in 10.0 mi SW 8.1 mph - N/A   Clear
12:15 PM 90.5 °F 97.5 °F 72.0 °F 54% 29.99 in 10.0 mi Calm Calm - N/A   Clear
12:35 PM 90.9 °F 96.7 °F 70.7 °F 51% 29.99 in 10.0 mi WSW 6.9 mph - N/A   Clear
12:55 PM 91.4 °F 96.8 °F 69.6 °F 49% 29.98 in 10.0 mi SSW 4.6 mph - N/A   Clear
1:15 PM 91.2 °F 96.0 °F 69.3 °F 48% 29.97 in 10.0 mi SW 5.8 mph - N/A   Clear
1:35 PM 91.4 °F 96.3 °F 68.9 °F 48% 29.97 in 10.0 mi WSW 6.9 mph - N/A   Clear
1:55 PM 91.6 °F 97.2 °F 70.0 °F 49% 29.96 in 10.0 mi SW 6.9 mph - N/A   Clear
2:15 PM 92.3 °F 96.5 °F 68.2 °F 45% 29.96 in 10.0 mi WSW 9.2 mph - N/A   Clear
2:35 PM 92.1 °F 96.7 °F 68.5 °F 46% 29.95 in 10.0 mi SW 3.5 mph - N/A   Clear
2:55 PM 92.1 °F 95.7 °F 67.6 °F 44% 29.94 in 10.0 mi WSW 9.2 mph - N/A   Clear
3:15 PM 91.8 °F 95.5 °F 67.5 °F 45% 29.94 in 10.0 mi WSW 6.9 mph - N/A   Clear
3:35 PM 92.1 °F 97.2 °F 69.1 °F 47% 29.94 in 10.0 mi SW 6.9 mph - N/A   Clear
3:55 PM 91.9 °F 96.4 °F 68.7 °F 46% 29.94 in 10.0 mi SW 8.1 mph - N/A   Clear
4:15 PM 92.3 °F 95.6 °F 66.6 °F 43% 29.93 in 10.0 mi WSW 6.9 mph - N/A   Clear
4:35 PM 92.5 °F 95.4 °F 66.4 °F 42% 29.93 in 10.0 mi WSW 8.1 mph - N/A   Clear
4:55 PM 92.5 °F 95.9 °F 66.9 °F 43% 29.93 in 10.0 mi WSW 4.6 mph - N/A   Clear
5:15 PM 92.7 °F 95.3 °F 65.7 °F 41% 29.93 in 10.0 mi WSW 6.9 mph - N/A   Clear
5:35 PM 91.8 °F 96.0 °F 68.0 °F 46% 29.93 in 10.0 mi SW 6.9 mph - N/A   Clear
5:55 PM 90.7 °F 93.6 °F 66.9 °F 45% 29.93 in 10.0 mi SW 6.9 mph - N/A   Clear
6:15 PM 90.0 °F 92.8 °F 66.9 °F 46% 29.93 in 10.0 mi SW 5.8 mph - N/A   Clear
6:35 PM 88.7 °F 91.9 °F 67.3 °F 49% 29.92 in 10.0 mi SSW 6.9 mph - N/A   Clear
6:55 PM 87.4 °F 90.8 °F 68.0 °F 52% 29.92 in 10.0 mi SSW 4.6 mph - N/A   Clear
7:15 PM 86.2 °F 89.4 °F 68.0 °F 54% 29.92 in 10.0 mi Calm Calm - N/A   Clear
7:35 PM 85.1 °F 87.9 °F 67.5 °F 55% 29.92 in 10.0 mi SSW 3.5 mph - N/A   Clear
7:55 PM 84.0 °F 86.3 °F 66.4 °F 55% 29.93 in 10.0 mi Calm Calm - N/A   Clear
8:15 PM 81.7 °F 84.2 °F 66.9 °F 61% 29.93 in 10.0 mi Calm Calm - N/A   Clear
8:35 PM 80.1 °F 82.3 °F 67.1 °F 64% 29.94 in 10.0 mi Calm Calm - N/A   Clear
8:55 PM 79.9 °F - 67.5 °F 66% 29.94 in 10.0 mi Calm Calm - N/A   Clear
9:15 PM 79.9 °F - 68.0 °F 67% 29.94 in 10.0 mi SSW 4.6 mph - N/A   Clear
9:35 PM 80.1 °F 82.7 °F 68.0 °F 67% 29.94 in 10.0 mi Calm Calm - N/A   Clear
9:55 PM 79.5 °F - 68.2 °F 68% 29.94 in 10.0 mi Calm Calm - N/A   Clear
10:15 PM 78.8 °F - 68.0 °F 69% 29.94 in 10.0 mi Calm Calm - N/A   Clear
10:35 PM 77.9 °F - 68.2 °F 72% 29.95 in 10.0 mi Calm Calm - N/A   Clear
10:55 PM 77.5 °F - 68.0 °F 72% 29.95 in 10.0 mi Calm Calm - N/A   Clear
11:15 PM 76.1 °F - 68.2 °F 76% 29.94 in 10.0 mi Calm Calm - N/A   Clear
11:35 PM 78.3 °F - 67.1 °F 68% 29.94 in 10.0 mi Calm Calm - N/A   Clear
11:55 PM 77.9 °F - 67.1 °F 69% 29.94 in 10.0 mi Calm Calm - N/A   Clear